Regional Weather Roundup
Issued by NWS

Home | Current Version | Previous Version | Text Only | Print | Product List | Glossary On
Versions: 1 2 3 4 5 6 7 8 9 10 11 12 13 14 15 16 17 18 19 20 21 22 23 24 25 26 27 28 29 30 31 32 33 34 35 36 37 38 39 40 41 42 43 44 45 46 47 48 49 50
000
ASUS43 KFSD 211510
RWRSD

WEATHER ROUNDUP FOR SOUTH DAKOTA
NATIONAL WEATHER SERVICE SIOUX FALLS SD
1000 AM CDT SAT OCT 21 2017

NOTE: "FAIR" INDICATES FEW OR NO CLOUDS BELOW 12,000 FEET WITH NO
SIGNIFICANT WEATHER AND/OR OBSTRUCTIONS TO VISIBILITY.


SDZ001>005-009-010-012>017-211600-
NORTHWEST AND NORTH CENTRAL SOUTH DAKOTA

CITY           SKY/WX    TMP DP  RH WIND       PRES   REMARKS
BUFFALO          N/A     46  28  49 W29G39    29.64R
MOBRIDGE       CLOUDY    50  43  77 NW21G26   29.58S
$$

SDZ012>016-024>037-041>051-057-063-072>074-211600-
SOUTHWEST AND SOUTH CENTRAL SOUTH DAKOTA

CITY           SKY/WX    TMP DP  RH WIND       PRES   REMARKS
RAPID CTY ARPT CLOUDY    48  24  39 NW16      29.77R
PIERRE         LGT RAIN  49  42  77 NW20G31   29.64R
CUSTER         CLOUDY    38  20  48 NW17G24   29.79R
ELLSWORTH AFB  CLOUDY    48  23  37 NW21G28   29.76R
PHILIP         CLOUDY    49  35  58 W18       29.75R
PINE RIDGE     CLOUDY    46  43  89 SW3       29.81R
SPEARFISH      FAIR      45  23  42 W20G32    29.79R
WINNER         CLOUDY    52  40  63 NW24G33   29.71R
$$

SDZ004>011-016>023-039-040-211600-
NORTHEAST SOUTH DAKOTA

CITY           SKY/WX    TMP DP  RH WIND       PRES   REMARKS
ABERDEEN       MOSUNNY   55  44  66 NW22G31   29.54R
WATERTOWN      CLOUDY    62  60  93 S8        29.50R
BROOKINGS      CLOUDY    64  60  87 S14       29.52S
SISSETON         N/A     64  59  83 S7        29.48R
$$

SDZ017-020-022-023-036>040-048>070-211600-
SOUTHEAST SOUTH DAKOTA

CITY           SKY/WX    TMP DP  RH WIND       PRES   REMARKS
SIOUX FALLS    PTSUNNY   68  63  84 S21G26    29.53R
HURON          CLOUDY    54  43  66 NW18      29.56R
CHAMBERLAIN    MOSUNNY   55  43  63 NW20G28   29.64R
MITCHELL       CLOUDY    57  43  59 NW25G32   29.56R
YANKTON        MOSUNNY   71  62  73 S10G20    29.52R
$$

ABBREVIATIONS USED IN REMARKS
   TC - TEMPERATURE IN CELSIUS
  WCI - WIND CHILL INDEX
   HX - HEAT INDEX
  VSB - VISIBILITY




USA.gov is the U.S. government's official web portal to all federal, state and local government web resources and services.